Total_Precipitation_Accumulation
0.00 0.00 0.00 0.00 0.00 0.00 0.00 0.00 0.00 0.00 0.00 0.00 0.00 0.00 0.00 0.00 0.00 0.00 0.00 0.00 0.00 0.00 0.01 0.01 0.02 0.04 0.06 0.09 0.12 0.13 0.14 0.14 0.13 0.13 0.13 0.13 0.13 0.13 0.14 0.15 0.15 0.15 0.16
0.00 0.00 0.00 0.00 0.00 0.00 0.00 0.00 0.00 0.00 0.00 0.00 0.00 0.00 0.00 0.00 0.00 0.00 0.00 0.00 0.00 0.00 0.00 0.01 0.02 0.05 0.08 0.12 0.15 0.16 0.16 0.16 0.15 0.15 0.15 0.15 0.14 0.14 0.15 0.16 0.16 0.17 0.18
0.00 0.00 0.00 0.00 0.00 0.00 0.00 0.00 0.00 0.00 0.00 0.00 0.00 0.00 0.00 0.00 0.00 0.00 0.00 0.00 0.00 0.00 0.00 0.01 0.03 0.05 0.08 0.11 0.16 0.19 0.21 0.20 0.18 0.17 0.17 0.18 0.17 0.17 0.18 0.19 0.20 0.21 0.22
0.01 0.01 0.01 0.01 0.01 0.01 0.01 0.01 0.01 0.01 0.00 0.01 0.00 0.01 0.01 0.00 0.00 0.00 0.00 0.00 0.00 0.00 0.00 0.01 0.02 0.04 0.06 0.09 0.14 0.20 0.23 0.23 0.22 0.20 0.21 0.22 0.23 0.23 0.24 0.26 0.26 0.26 0.27
0.03 0.03 0.02 0.02 0.03 0.03 0.03 0.03 0.02 0.02 0.02 0.01 0.01 0.01 0.01 0.01 0.01 0.01 0.00 0.00 0.01 0.01 0.01 0.01 0.02 0.02 0.04 0.06 0.10 0.17 0.26 0.30 0.27 0.25 0.23 0.24 0.25 0.28 0.31 0.34 0.36 0.37 0.38
0.09 0.07 0.06 0.06 0.06 0.06 0.06 0.06 0.05 0.04 0.04 0.04 0.04 0.02 0.01 0.01 0.01 0.01 0.01 0.01 0.01 0.01 0.01 0.02 0.02 0.02 0.02 0.05 0.07 0.12 0.22 0.30 0.33 0.30 0.28 0.27 0.28 0.30 0.34 0.38 0.41 0.44 0.48
0.22 0.15 0.13 0.13 0.12 0.10 0.09 0.09 0.09 0.07 0.06 0.06 0.05 0.03 0.01 0.01 0.01 0.01 0.02 0.02 0.02 0.02 0.02 0.03 0.03 0.03 0.04 0.05 0.07 0.08 0.14 0.23 0.33 0.36 0.35 0.34 0.35 0.37 0.41 0.44 0.48 0.50 0.54
0.31 0.25 0.21 0.19 0.16 0.14 0.13 0.12 0.13 0.11 0.09 0.10 0.11 0.12 0.06 0.02 0.01 0.02 0.02 0.03 0.03 0.03 0.03 0.04 0.05 0.05 0.05 0.06 0.06 0.07 0.10 0.16 0.27 0.40 0.48 0.49 0.49 0.51 0.56 0.61 0.64 0.67 0.71
0.40 0.34 0.30 0.28 0.26 0.25 0.21 0.21 0.21 0.20 0.18 0.18 0.18 0.22 0.17 0.08 0.04 0.03 0.03 0.04 0.05 0.04 0.05 0.05 0.06 0.06 0.07 0.08 0.09 0.12 0.15 0.19 0.28 0.42 0.57 0.63 0.65 0.68 0.76 0.83 0.89 0.94 0.93
0.42 0.42 0.40 0.38 0.35 0.34 0.31 0.33 0.37 0.36 0.32 0.25 0.23 0.22 0.24 0.22 0.21 0.13 0.06 0.06 0.06 0.06 0.06 0.06 0.07 0.08 0.09 0.11 0.14 0.18 0.24 0.30 0.38 0.49 0.63 0.74 0.83 0.94 1.04 1.12 1.19 1.23 1.19
0.37 0.39 0.40 0.37 0.33 0.34 0.37 0.40 0.41 0.43 0.41 0.37 0.35 0.34 0.34 0.29 0.27 0.27 0.16 0.08 0.09 0.09 0.10 0.10 0.11 0.13 0.15 0.18 0.22 0.28 0.36 0.42 0.52 0.63 0.77 0.94 1.10 1.23 1.35 1.43 1.50 1.52 1.50
0.27 0.28 0.33 0.34 0.35 0.37 0.40 0.43 0.46 0.49 0.51 0.51 0.48 0.43 0.44 0.40 0.35 0.38 0.36 0.25 0.22 0.20 0.20 0.22 0.24 0.27 0.28 0.30 0.32 0.40 0.45 0.52 0.63 0.74 0.88 1.08 1.22 1.32 1.43 1.55 1.64 1.69 1.71
0.18 0.21 0.26 0.29 0.33 0.37 0.42 0.45 0.47 0.47 0.52 0.54 0.53 0.50 0.48 0.46 0.45 0.50 0.56 0.49 0.42 0.36 0.37 0.38 0.38 0.39 0.40 0.41 0.43 0.49 0.50 0.54 0.60 0.69 0.83 1.04 1.11 1.07 1.08 1.18 1.30 1.41 1.51
0.19 0.23 0.25 0.27 0.30 0.33 0.36 0.39 0.39 0.41 0.44 0.46 0.47 0.47 0.45 0.43 0.43 0.47 0.55 0.65 0.65 0.55 0.50 0.49 0.49 0.50 0.50 0.49 0.49 0.53 0.47 0.54 0.57 0.62 0.71 0.80 0.78 0.71 0.69 0.75 0.86 0.97 1.09
0.16 0.17 0.19 0.21 0.23 0.25 0.27 0.29 0.30 0.30 0.32 0.34 0.35 0.36 0.37 0.35 0.36 0.38 0.45 0.58 0.75 0.74 0.60 0.52 0.53 0.54 0.54 0.52 0.53 0.48 0.42 0.48 0.51 0.52 0.57 0.59 0.57 0.56 0.56 0.60 0.68 0.78 0.87
0.11 0.13 0.14 0.16 0.17 0.17 0.18 0.19 0.19 0.20 0.21 0.22 0.24 0.26 0.27 0.28 0.30 0.34 0.39 0.47 0.60 0.71 0.65 0.50 0.44 0.45 0.47 0.45 0.45 0.39 0.35 0.42 0.43 0.43 0.45 0.46 0.48 0.51 0.54 0.56 0.59 0.65 0.75
0.08 0.09 0.11 0.11 0.11 0.11 0.11 0.12 0.13 0.13 0.15 0.16 0.17 0.20 0.22 0.24 0.26 0.29 0.33 0.38 0.44 0.51 0.54 0.44 0.37 0.35 0.35 0.34 0.32 0.29 0.26 0.25 0.25 0.30 0.33 0.34 0.36 0.40 0.44 0.49 0.52 0.56 0.62
0.06 0.06 0.06 0.06 0.06 0.06 0.07 0.08 0.09 0.11 0.13 0.15 0.16 0.19 0.21 0.23 0.27 0.29 0.31 0.33 0.34 0.35 0.38 0.36 0.28 0.24 0.22 0.21 0.19 0.18 0.16 0.16 0.14 0.17 0.21 0.24 0.26 0.31 0.36 0.38 0.41 0.45 0.50
0.06 0.05 0.04 0.04 0.05 0.05 0.06 0.07 0.09 0.11 0.13 0.16 0.19 0.23 0.25 0.27 0.29 0.29 0.28 0.26 0.25 0.24 0.25 0.28 0.21 0.16 0.13 0.12 0.12 0.10 0.09 0.10 0.09 0.11 0.13 0.15 0.20 0.25 0.29 0.32 0.34 0.34 0.36
0.06 0.06 0.05 0.05 0.06 0.08 0.09 0.11 0.13 0.16 0.19 0.21 0.24 0.27 0.29 0.29 0.28 0.25 0.22 0.20 0.19 0.18 0.18 0.21 0.22 0.17 0.13 0.09 0.10 0.10 0.09 0.07 0.07 0.06 0.07 0.08 0.11 0.14 0.16 0.19 0.22 0.23 0.25
0.06 0.07 0.08 0.09 0.11 0.12 0.16 0.19 0.22 0.26 0.30 0.32 0.32 0.30 0.27 0.25 0.20 0.17 0.16 0.15 0.15 0.17 0.23 0.28 0.25 0.19 0.13 0.11 0.10 0.10 0.11 0.09 0.06 0.04 0.04 0.03 0.04 0.05 0.06 0.09 0.15 0.20 0.26
0.10 0.12 0.15 0.19 0.25 0.29 0.36 0.35 0.32 0.31 0.30 0.27 0.24 0.21 0.19 0.17 0.14 0.13 0.13 0.14 0.18 0.26 0.33 0.35 0.29 0.20 0.10 0.07 0.08 0.13 0.18 0.22 0.15 0.04 0.06 0.04 0.03 0.04 0.07 0.12 0.19 0.26 0.33
0.22 0.26 0.30 0.35 0.38 0.40 0.38 0.29 0.24 0.21 0.22 0.21 0.17 0.13 0.10 0.08 0.07 0.05 0.06 0.11 0.16 0.21 0.24 0.23 0.19 0.11 0.10 0.12 0.23 0.33 0.29 0.28 0.17 0.05 0.06 0.07 0.04 0.06 0.08 0.14 0.25 0.29 0.36
0.37 0.40 0.41 0.43 0.42 0.40 0.34 0.25 0.19 0.15 0.13 0.10 0.08 0.06 0.05 0.04 0.04 0.07 0.13 0.18 0.12 0.08 0.07 0.07 0.10 0.13 0.16 0.16 0.23 0.33 0.30 0.22 0.10 0.04 0.07 0.15 0.10 0.10 0.09 0.13 0.23 0.26 0.29
0.46 0.45 0.42 0.38 0.31 0.25 0.20 0.14 0.10 0.07 0.05 0.04 0.03 0.03 0.05 0.05 0.06 0.19 0.27 0.23 0.10 0.03 0.02 0.07 0.12 0.12 0.10 0.09 0.11 0.27 0.38 0.40 0.25 0.07 0.06 0.12 0.10 0.11 0.15 0.17 0.22 0.26 0.27
0.35 0.31 0.26 0.22 0.17 0.13 0.09 0.06 0.04 0.03 0.03 0.02 0.03 0.03 0.03 0.05 0.14 0.26 0.24 0.19 0.10 0.06 0.09 0.06 0.03 0.01 0.01 0.02 0.08 0.23 0.57 0.84 0.59 0.29 0.09 0.22 0.24 0.30 0.42 0.22 0.21 0.24 0.25